Theta_e
345 342 344 342 327 323 315 320 327 325 325 330 331 328 325 329 330 327 353 353 358 357 359 358 363 362 360 360 358 357 357 357 355 355 353 350 348 346 345 344 343 342 341 340 339 339 338 338 338
346 348 344 336 321 310 312 324 323 326 330 330 331 332 328 325 341 344 347 356 359 358 357 357 361 360 359 357 356 355 354 353 351 351 349 347 345 343 340 339 338 338 337 336 337 335 335 335 335
346 348 335 327 320 314 313 320 325 327 330 330 324 327 329 329 339 347 353 359 355 356 358 357 360 359 358 356 354 354 353 351 350 348 347 344 341 339 337 337 337 336 336 336 335 334 332 332 332
346 343 336 323 313 319 320 323 324 324 327 330 329 325 334 341 339 351 353 358 356 353 355 357 359 358 357 355 354 352 350 349 348 346 343 341 338 337 337 337 336 335 334 334 333 332 332 332 332
346 336 323 317 315 320 323 326 325 323 325 327 327 323 330 342 350 352 351 354 353 352 355 353 358 358 356 353 350 350 349 347 345 343 341 339 338 337 337 336 336 336 335 334 333 333 333 333 335
329 330 318 313 315 320 323 326 325 324 325 326 326 326 333 346 347 349 350 350 349 353 354 352 357 357 353 353 351 349 346 345 344 341 339 338 337 337 337 337 336 335 334 333 333 333 334 336 337
327 319 316 314 316 318 322 326 323 323 322 323 330 328 336 342 346 348 348 349 349 351 353 351 350 352 356 354 351 347 345 344 343 342 340 338 337 337 338 338 338 336 336 336 336 337 338 339 340
325 323 315 317 316 314 324 328 329 326 326 332 335 327 331 342 347 347 347 347 346 349 349 347 347 350 352 350 350 347 345 343 343 341 340 339 339 341 341 342 341 338 337 339 341 342 344 344 344
329 318 313 316 318 319 327 324 326 331 328 329 333 336 341 344 345 345 344 344 344 344 348 346 347 351 350 347 346 346 345 343 342 340 341 342 336 336 336 341 344 341 341 342 344 346 347 348 348
325 318 315 322 322 321 325 325 326 325 327 326 330 338 343 342 342 340 340 341 341 343 344 348 352 351 349 346 345 342 339 339 339 338 338 337 339 342 337 342 347 345 345 345 346 347 348 346 338
326 317 321 321 324 327 325 325 326 322 322 327 328 327 338 341 341 339 340 341 341 345 347 349 352 351 347 345 343 340 340 339 339 345 345 348 346 346 341 337 336 337 341 337 341 341 339 338 335
320 325 323 326 327 325 322 325 324 324 328 333 336 336 341 340 340 340 340 341 342 344 349 348 348 346 351 343 344 341 340 342 336 341 347 345 346 344 340 340 343 342 342 339 337 337 337 337 335
321 321 325 327 325 325 324 321 321 325 331 333 335 334 340 340 342 343 344 345 345 347 350 347 348 352 347 350 352 340 341 338 335 337 340 338 346 343 341 338 338 341 340 339 340 335 335 338 337
322 321 322 324 324 324 321 320 323 324 330 332 334 334 337 340 342 344 345 345 348 349 351 353 347 353 346 354 346 339 337 335 334 336 337 340 345 344 338 342 341 338 336 341 340 340 338 334 334
322 317 321 322 323 320 322 316 321 324 326 330 333 336 339 341 344 344 346 347 348 352 352 350 351 356 353 354 349 343 337 336 338 336 338 339 342 344 342 337 341 340 339 344 339 337 337 333 333
317 317 312 320 321 322 320 311 322 325 324 325 332 335 338 341 342 345 347 351 352 351 351 351 351 352 356 355 348 342 339 338 340 340 339 338 341 342 345 340 340 342 342 340 337 337 333 329 329
316 309 311 313 321 319 318 314 322 326 325 323 328 333 336 339 342 346 347 349 351 352 352 350 353 353 352 353 350 350 349 347 343 345 336 342 341 340 345 345 343 339 340 338 331 329 328 323 320
307 309 310 311 315 316 315 316 322 326 324 324 325 331 334 338 340 344 346 348 350 350 353 352 352 352 352 351 349 349 350 348 350 349 346 344 344 341 341 339 340 339 334 328 328 329 325 320 318
312 312 310 314 317 315 313 315 317 322 324 325 326 331 333 336 341 343 344 346 347 349 348 349 350 350 349 347 345 345 342 346 346 347 344 342 340 338 341 335 331 329 328 327 327 323 319 317 318
314 311 310 314 317 316 314 313 318 320 321 322 319 331 333 335 334 339 342 344 345 346 348 349 348 348 348 347 348 349 345 345 343 342 342 340 339 336 332 331 328 328 322 325 323 323 318 316 316
311 309 310 310 314 315 312 310 314 320 322 322 324 327 332 334 335 337 339 343 342 343 344 344 345 349 349 346 349 347 344 345 342 340 340 338 336 331 331 329 327 325 325 320 322 321 318 313 314
307 313 312 310 308 303 312 301 312 316 318 318 321 322 324 333 337 337 338 339 341 341 342 345 346 348 350 351 347 347 341 336 337 337 336 334 333 329 328 326 326 327 323 324 321 320 320 316 311
309 313 311 311 308 307 307 304 309 315 313 315 321 318 322 329 335 335 335 338 339 341 342 343 343 346 347 350 347 344 339 333 336 333 337 335 334 330 326 326 326 324 324 323 323 321 319 318 314
315 313 313 312 309 300 306 305 305 309 314 316 320 321 324 326 333 336 338 339 339 340 340 339 342 343 345 344 342 338 335 334 330 330 326 330 330 329 328 326 326 325 326 323 323 323 320 319 318
315 310 302 301 301 300 310 306 305 315 315 317 320 324 326 331 333 334 333 335 337 337 338 339 339 339 338 339 335 335 336 335 334 332 325 326 326 325 328 327 324 322 324 324 324 323 321 319 317
312 310 302 295 296 300 308 303 309 318 320 321 323 330 331 331 333 333 333 334 331 336 337 336 337 335 334 333 334 335 338 331 330 329 325 325 325 326 328 325 325 323 324 324 324 323 321 321 319
310 306 313 305 307 303 306 310 315 318 316 315 317 323 329 328 332 332 331 332 331 332 333 332 328 329 330 332 335 336 336 333 330 329 330 329 328 323 326 325 324 323 324 324 324 321 321 321 321
314 315 306 308 299 296 303 304 304 311 312 314 315 319 326 331 329 329 328 329 330 330 328 329 329 329 331 332 334 330 333 332 329 329 327 328 326 327 327 325 323 323 323 324 324 323 320 318 320
310 308 311 310 308 299 298 301 313 313 314 316 317 318 323 330 327 325 325 327 326 325 324 328 328 329 329 330 334 333 330 329 327 327 327 326 328 327 326 325 322 322 322 324 324 322 322 319 319
314 312 314 306 303 307 304 303 319 315 317 315 316 324 325 324 324 324 323 323 324 322 324 326 330 328 329 330 324 329 332 330 328 327 325 327 327 328 327 326 323 321 321 323 321 320 320 318 317
Wind_Speed
10 12 10 10 4 2 2 8 13 11 10 13 8 7 15 18 10 6 10 8 21 19 16 15 15 15 14 12 13 11 9 11 12 12 13 11 11 11 10 10 9 8 7 6 6 5 5 5 5
11 16 10 7 6 4 5 2 11 7 8 7 6 6 14 17 16 14 10 12 19 18 14 14 15 13 12 11 11 10 10 11 9 10 10 10 10 9 8 8 7 6 5 5 5 5 5 5 5
12 18 8 5 4 3 7 23 13 12 5 7 11 13 10 11 12 9 15 21 20 16 14 15 14 14 13 13 12 12 11 10 10 10 11 10 9 8 7 7 6 5 4 4 4 4 3 4 4
9 7 8 11 6 7 6 9 10 10 8 4 10 16 10 10 8 12 15 23 19 17 18 18 14 13 13 14 13 12 12 11 10 10 9 8 8 7 6 6 5 5 4 4 3 2 2 4 4
13 8 8 6 10 12 10 6 3 8 7 9 15 16 11 9 15 16 16 18 19 18 19 18 17 14 14 14 13 12 12 12 10 9 9 8 8 7 6 6 6 5 4 3 2 1 1 3 4
7 6 5 11 9 9 8 9 6 9 12 5 17 17 10 13 14 14 16 16 15 22 19 17 17 13 13 12 12 12 11 11 10 8 7 7 7 7 6 6 6 5 3 2 0 2 4 5 7
10 3 8 10 11 14 11 11 7 10 10 7 7 14 12 13 14 15 16 15 13 22 19 16 15 13 14 14 13 12 11 10 10 9 7 7 6 7 8 8 6 4 1 2 3 5 7 8 10
8 5 14 17 9 5 9 8 16 4 14 8 8 6 11 16 16 16 15 15 13 20 20 18 17 15 14 12 14 13 11 10 10 9 8 8 9 11 10 9 8 7 6 8 8 10 12 12 11
17 6 2 19 1 11 15 8 9 5 6 7 10 14 20 20 17 15 14 14 13 13 20 18 18 16 15 14 12 12 13 11 9 8 10 8 7 9 11 11 14 13 13 11 12 13 14 14 14
9 4 4 11 19 26 5 14 15 6 9 9 22 18 18 18 16 14 13 12 13 10 10 14 15 13 13 11 13 11 10 8 8 9 9 7 9 6 9 10 14 14 13 13 15 15 15 13 8
7 9 14 21 33 30 11 9 4 16 12 19 22 12 14 12 13 12 12 13 13 11 12 14 11 11 15 11 10 7 7 7 8 9 9 5 3 1 4 2 4 3 11 6 9 9 8 8 5
4 25 24 9 29 17 7 7 12 21 2 3 21 23 21 14 12 10 10 9 14 12 6 17 17 10 7 10 6 7 8 7 5 3 5 1 1 4 4 3 3 2 2 3 4 4 4 5 5
10 7 28 12 5 11 8 10 3 7 6 3 5 5 14 11 12 10 6 5 14 12 8 6 11 7 6 4 2 4 4 5 5 4 5 4 2 2 3 3 3 3 5 5 3 3 6 7 6
5 9 8 6 9 4 4 13 4 24 26 4 3 4 10 11 9 10 7 6 6 12 10 4 9 7 7 3 8 4 5 5 4 4 2 2 2 3 3 4 3 4 5 4 6 4 4 4 6
10 13 8 9 21 3 5 14 10 13 14 1 3 2 8 8 9 10 8 8 6 9 7 10 10 7 7 6 4 5 4 4 4 3 2 4 3 2 4 4 2 3 5 6 5 5 5 3 4
17 14 13 12 25 21 15 10 10 14 11 10 14 9 8 8 9 10 9 8 8 9 10 7 6 9 8 5 5 4 4 5 4 3 4 6 5 3 3 3 3 4 5 4 5 4 4 5 6
19 13 2 5 5 11 13 21 10 5 11 9 8 12 11 11 10 10 10 7 7 7 9 6 7 8 7 6 5 5 5 3 4 3 3 4 1 2 2 4 4 5 4 3 4 5 5 6 8
17 23 10 8 5 14 22 18 15 17 12 9 9 11 12 16 13 11 11 10 7 6 8 8 7 9 8 6 4 3 4 3 3 2 2 3 3 5 1 4 2 3 4 5 5 5 5 6 6
21 20 27 18 20 17 20 16 9 11 15 9 5 10 10 14 17 12 8 8 9 10 9 7 9 8 6 6 6 5 5 4 4 3 3 3 4 5 1 5 6 7 5 5 6 5 6 5 5
21 25 18 18 17 11 13 19 12 6 8 7 15 14 12 19 14 14 10 9 9 10 8 9 9 8 6 6 4 3 4 4 4 4 4 4 3 6 7 6 6 6 5 5 5 5 4 4 5
15 15 12 16 19 21 18 16 10 18 3 16 24 35 13 18 17 15 13 12 12 10 7 8 6 5 4 7 4 3 5 3 3 4 3 2 5 7 7 6 4 5 5 4 5 4 6 5 5
15 16 18 16 17 16 18 15 1 12 10 12 19 11 27 18 20 16 15 12 13 9 7 8 8 5 3 5 4 2 2 4 3 4 4 3 5 4 6 4 4 3 3 4 4 4 4 5 6
16 19 21 22 19 20 22 8 10 13 4 9 19 21 24 11 20 17 16 15 15 12 9 7 6 5 3 2 4 2 3 3 3 6 5 6 5 5 5 4 3 3 3 4 4 4 4 3 3
12 16 20 19 15 8 9 5 5 7 8 10 14 18 15 24 21 18 16 15 14 13 11 7 7 6 4 5 7 7 7 6 6 5 2 3 3 3 6 4 4 3 2 4 4 3 5 4 3
14 14 10 14 11 10 7 7 9 7 18 24 2 22 24 19 19 18 17 14 15 15 14 10 10 7 6 7 6 6 6 5 5 1 5 4 2 5 4 2 3 2 3 4 4 4 6 3 3
11 12 12 19 12 19 12 6 6 14 17 20 21 20 20 13 10 16 14 14 14 19 16 14 12 9 8 6 7 6 4 2 5 5 4 3 3 4 2 3 1 3 4 4 4 4 4 2 2
12 13 18 17 14 14 13 14 21 19 21 19 23 12 23 25 16 17 12 13 12 12 9 15 13 10 8 8 7 5 5 6 5 4 1 2 4 3 4 3 2 4 4 5 5 4 6 5 3
18 8 14 6 9 11 10 17 6 12 10 14 23 28 19 19 21 13 13 12 10 11 9 12 11 10 8 9 7 6 6 5 5 2 3 2 1 1 4 3 3 4 5 5 5 2 5 6 4
16 13 7 7 3 4 9 6 5 8 2 8 12 20 25 19 16 16 13 14 12 13 11 7 8 8 7 6 6 6 6 5 4 1 2 3 3 4 5 4 4 5 5 5 4 5 6 7 6
15 9 12 9 12 6 10 5 9 9 5 6 8 14 12 16 13 10 15 13 12 15 14 10 7 6 6 6 8 7 6 6 4 2 4 4 4 5 5 5 4 4 6 5 5 6 6 6 8
Wind_Direction
232 231 225 246 242 352 293 206 77 52 356 69 58 44 70 53 24 105 156 133 118 127 128 137 132 133 131 125 119 118 108 104 93 91 88 97 96 92 89 84 83 73 73 66 60 46 42 29 16
265 267 243 275 252 135 292 300 117 118 107 105 148 167 102 70 83 118 125 121 111 123 138 139 140 134 123 120 121 114 109 103 112 107 109 106 103 100 96 95 92 91 81 70 65 54 34 24 1
262 263 268 274 216 152 143 251 113 91 156 221 114 64 37 86 83 108 119 117 123 130 144 133 140 135 136 130 128 125 121 124 126 125 119 118 116 118 113 111 107 99 88 75 61 46 16 352 338
252 224 244 255 70 173 167 83 100 139 109 285 111 101 95 28 91 113 139 130 137 146 137 134 136 138 135 137 137 133 133 132 130 129 128 128 126 123 116 107 103 99 89 87 66 18 343 320 316
254 263 251 230 182 80 98 134 164 91 138 137 103 87 99 81 100 122 150 155 150 153 129 143 146 146 149 147 145 140 141 139 140 144 145 145 143 140 131 115 108 99 94 93 93 39 331 311 302
68 290 233 245 145 145 155 126 156 105 95 163 113 105 95 123 128 137 153 156 159 129 141 143 143 149 147 145 147 145 147 146 150 154 154 156 159 156 147 136 132 130 129 117 343 308 305 299 293
121 2 290 322 171 139 158 172 158 155 169 107 147 109 126 146 140 152 155 161 169 137 126 145 147 155 154 148 151 154 156 157 156 161 167 177 178 183 181 178 170 166 178 257 268 272 271 268 268
118 87 340 311 96 306 91 37 330 67 151 131 92 106 149 140 158 154 159 159 170 141 150 154 152 161 160 157 163 163 160 164 169 174 182 191 201 208 201 194 195 192 208 232 247 253 252 251 258
139 80 180 270 327 210 114 105 287 244 111 212 126 151 132 147 161 160 161 162 177 165 157 156 156 160 179 158 166 165 165 173 181 185 205 206 218 204 203 210 181 199 213 226 241 248 260 264 266
86 63 158 335 316 304 179 154 222 220 184 10 7 56 126 151 157 168 171 167 169 158 131 140 153 166 143 153 153 174 172 179 191 192 192 212 221 185 164 191 189 202 221 225 238 242 255 268 267
126 175 157 223 232 258 210 132 43 353 276 140 189 171 193 165 159 174 178 178 162 139 121 139 151 161 153 143 181 174 171 179 198 191 193 190 36 165 212 188 204 201 224 243 231 232 229 262 309
156 157 188 223 224 246 293 125 156 192 79 101 139 166 186 164 160 179 187 183 135 141 147 151 151 155 176 169 176 183 171 158 84 29 177 44 99 17 308 22 46 251 88 284 331 351 286 266 293
338 0 191 203 196 249 352 280 23 86 68 50 62 144 147 157 162 166 179 134 126 133 139 222 151 141 156 130 59 37 106 100 97 68 55 23 358 336 340 9 338 348 352 338 359 358 317 303 301
258 323 317 286 309 309 254 297 114 23 342 76 332 114 140 147 152 142 147 149 137 131 144 164 139 131 125 208 106 93 89 91 96 81 75 328 329 9 325 318 355 1 304 304 298 257 275 328 329
307 282 224 338 341 313 3 281 107 142 194 230 172 141 108 137 148 140 153 140 146 131 119 122 113 124 130 115 111 112 125 105 101 159 183 267 282 257 317 280 339 296 294 279 274 314 323 328 319
263 58 19 10 355 322 331 283 139 172 210 227 165 151 132 128 147 135 139 133 145 120 120 133 138 151 150 146 134 144 147 183 162 202 214 221 220 242 290 302 303 295 265 304 289 322 342 336 337
343 337 241 342 338 349 298 280 118 183 219 227 178 160 157 152 139 125 136 134 134 137 154 147 144 134 150 149 169 199 165 176 208 194 217 182 174 207 216 254 260 237 263 323 19 0 357 356 337
298 284 261 189 222 221 282 269 162 190 224 243 219 168 170 159 148 139 149 148 129 97 90 105 120 136 147 145 150 178 147 199 210 200 158 136 218 240 216 264 207 16 10 14 356 21 6 339 319
225 250 260 211 218 204 211 267 300 213 215 215 295 164 173 166 139 137 120 130 136 105 106 124 123 139 138 175 171 157 178 169 164 110 160 154 215 207 185 21 26 18 9 340 29 20 344 324 323
236 244 296 326 294 263 266 262 269 284 230 152 166 222 175 128 138 132 141 148 110 122 130 138 143 169 180 152 134 163 164 144 139 159 146 215 52 80 74 36 11 26 351 352 23 355 346 332 327
276 282 266 283 305 293 277 282 283 348 305 45 17 334 172 145 140 145 156 132 138 132 145 135 128 105 76 117 131 120 113 113 140 123 171 121 88 53 71 43 36 10 345 351 2 4 355 320 324
285 318 321 293 301 299 317 298 320 45 41 63 81 341 323 162 149 151 142 148 123 141 141 128 113 102 75 105 110 180 188 146 182 132 136 136 89 107 101 69 30 19 346 25 350 338 346 333 330
311 308 304 302 289 286 285 285 325 331 250 180 168 168 221 254 149 151 141 146 145 147 127 118 112 119 160 124 77 222 84 170 169 133 133 125 163 161 127 90 46 14 311 324 353 3 329 317 337
291 295 295 284 296 333 283 237 290 319 312 288 205 198 191 243 135 138 133 132 124 138 139 140 152 150 135 105 88 64 55 60 57 34 3 45 177 140 85 61 69 312 317 345 308 316 298 295 306
309 316 293 294 294 305 40 155 235 111 209 250 123 184 208 155 137 134 138 153 165 153 152 148 151 143 131 114 105 84 70 64 96 15 59 3 344 102 103 106 63 324 313 289 299 297 282 340 341
317 303 296 296 307 274 279 259 25 38 27 7 0 71 91 87 173 144 145 176 159 152 164 156 154 138 122 122 107 93 75 178 65 63 35 318 18 48 354 64 2 290 286 291 292 288 283 270 295
301 291 312 292 318 333 320 342 77 34 19 2 338 336 152 183 153 141 159 179 152 140 137 142 119 119 146 144 126 143 104 76 59 60 47 349 52 338 40 318 302 277 279 281 280 283 310 292 252
280 51 270 359 323 300 278 304 45 42 7 14 338 330 278 135 122 187 158 120 118 127 111 107 133 154 160 151 166 139 134 149 121 163 220 231 218 274 270 275 282 279 273 276 278 277 302 299 289
315 306 331 213 259 262 301 291 248 291 126 7 358 313 298 143 156 137 151 135 137 118 122 125 137 146 146 175 158 140 121 106 79 36 284 255 243 242 257 264 256 262 270 269 284 267 261 281 282
258 323 349 307 301 256 326 326 44 44 40 90 265 1 29 12 20 162 131 135 144 149 145 168 161 150 157 147 117 146 126 103 93 304 261 254 264 253 255 253 254 268 270 271 268 263 264 273 280